Starlink 33824

operational
NORAD ID: 63766 Int'l Des: 2025-089 Owner: SPXS Country: US Constellation: starlink
LEOCIRCULAR

Über Starlink 33824

Beschreibung wird geladen...

Live-Position

3D-Globus wird geladen...

Nächste Überflüge

Höhenverlauf

Altitude vs Time

uPlot chart will show altitude changes over time

Zweizeiliger Elementsatz

1 63766U 25089R 26036.84927035 .00038517 00000-0 14007-2 0 9995
2 63766 43.0002 225.4299 0002188 275.8759 84.1843 15.27607326 44087
Epoch: 5. Feb. 2026 • Age: 18 hours

Aktueller Status

Höhe 486.4 km
Geschwindigkeit 7.63 km/s
Subsatellitenpunkt 38.70°N, 6.29°W
Startdatum 29. Apr. 2025
Alter 0.7 years
Typ internet

Technische Details

Klassifizierung Payload
Masse 575.00 kg
Trockenmasse 530.00 kg
Gesamtmasse 575.00 kg
Länge 0.30 m
Durchmesser 4.10 m
Spannweite 29.00 m
Form Box + pan
Hersteller SPXS
Bus-Typ Starlink V2MO
Phasenstatus In Orbit
Besitzer/Staat SPXS/US

Große Konstellationen

Loading constellations...